[[{"header":{"parameterUnit":"m.s-1","parameterCategory":1,"la1":30.2991,"la2":30.254,"lo1":-89.0895,"lo2":-89.0444,"dy":0.0017,"dx":0.0017,"nx":28,"ny":28,"refTime":"2025-01-15T09:00:00:Z","depth":0,"parameterNumber":2,"parameterNumberName":"U-component_of_WINDS"},"data":[0,0,0,0,0,0,0,0,0,0,0,0,0,0,0,0,0,0,0,0,0,0,0,0,0,0,0,0,0,0,0,0,0,0,0,0,0,0,0,0,0,0,0,0,0,0,0,0,0,0,0,0,0,0,0,0,0,0,-3.6436,-3.6437,0,-3.6499,-3.6499,-3.65,-3.6392,-3.6389,-3.6385,-3.6381,-3.645,-3.6455,-3.646,0,0,0,0,0,0,0,0,0,0,0,0,0,-3.6229,-3.6234,-3.6436,-3.6437,-3.6438,-3.6498,-3.6499,-3.65,-3.6393,-3.6388,-3.6384,-3.638,-3.6448,-3.6454,-3.6461,0,0,0,0,0,0,0,0,0,0,0,0,0,-3.6309,-3.6235,-3.6436,-3.6391,-3.6388,-3.6498,-3.6499,-3.65,-3.6394,-3.6388,-3.6383,-3.6378,-3.6446,-3.6454,-3.6461,-3.662,0,0,-3.6485,-3.6489,0,0,0,0,0,0,0,0,-3.6304,-3.6316,-3.6397,-3.6395,-3.6391,-3.6432,-3.6451,-3.6541,-3.6395,-3.6392,-3.6381,-3.6375,-3.6449,-3.6456,-3.648,-3.6623,-3.6626,-3.6486,-3.6491,-3.6494,-3.6496,0,0,0,0,0,0,0,-3.6299,-3.6313,-3.6461,-3.6399,-3.6395,-3.637,-3.6375,-3.6468,-3.645,-3.6392,-3.6384,-3.6393,-3.6446,-3.6473,-3.6481,-3.6627,-3.6486,-3.6493,-3.6498,-3.6501,-3.6906,-3.6911,0,0,0,0,0,0,-3.6298,-3.6309,-3.6459,-3.6463,-3.6333,-3.6378,-3.6384,-3.6424,-3.6449,-3.6447,-3.6397,-3.6387,-3.6462,-3.6472,-3.6483,-3.6671,-3.6494,-3.6502,-3.6506,-3.69,-3.6907,-3.6913,0,0,0,0,0,0,-3.6294,-3.6313,-3.6456,-3.6384,-3.64,-3.6387,-3.6434,-3.6429,-3.6455,-3.6453,-3.645,-3.6427,-3.6458,-3.6472,-3.6587,-3.6672,-3.6505,-3.6512,-3.6893,-3.6902,-3.691,-3.7049,0,0,0,0,0,0,-3.6289,-3.6312,-3.637,-3.6386,-3.6405,-3.6558,-3.6439,-3.6434,-3.6468,-3.6456,-3.648,-3.6479,-3.6455,-3.6576,-3.6595,-3.668,-3.6518,-3.6885,-3.6897,-3.6907,-3.7037,-3.7062,-3.7083,0,0,0,0,0,-3.6282,-3.6407,-3.6374,-3.6393,-3.6477,-3.6563,-3.6574,-3.6542,-3.6475,-3.6535,-3.6535,-3.6479,-3.6659,-3.6588,-3.6609,-3.6698,-3.6879,-3.6893,-3.6906,-3.7026,-3.7057,-3.7083,0,0,0,0,0,0,-3.6403,-3.6408,-3.6371,-3.6505,-3.6535,-3.6545,-3.6619,-3.6575,-3.6624,-3.6611,-3.657,-3.6577,-3.6701,-3.671,-3.6631,-3.6853,-3.6759,-3.6777,-3.6843,-3.6872,-3.6894,-3.689,-3.6525,0,0,0,0,0,-3.6445,-3.6513,-3.6514,-3.6633,-3.6649,-3.6632,-3.6668,-3.6641,-3.667,-3.6682,-3.669,-3.6722,-3.6786,-3.6829,-3.6888,-3.7037,-3.7043,-3.7109,-3.7132,-3.7151,-3.7168,-3.7251,-3.7281,-3.6958,-3.6958,-3.6958,0,0,-3.6533,-3.6545,-3.659,-3.6658,-3.6677,-3.675,-3.6643,-3.6724,-3.6779,-3.6695,-3.6804,-3.6811,-3.6844,-3.6978,-3.7037,-3.699,-3.7258,-3.7168,-3.7184,-3.719,-3.7268,-3.7298,-3.7326,-3.6967,-3.6966,-3.6964,0,0,-3.6732,-3.6746,-3.6847,-3.6869,-3.69,-3.6888,-3.6912,-3.693,-3.6931,-3.7039,-3.6979,-3.7044,-3.7154,-3.7181,-3.7209,-3.742,-3.7372,-3.7441,-3.7562,-3.7643,-3.7669,-3.7691,-3.7769,-3.7797,-3.7457,-3.7457,-3.7458,0,-3.6838,-3.6944,-3.6905,-3.6992,-3.7024,-3.6951,-3.7054,-3.7078,-3.7127,-3.7152,-3.7097,-3.7236,-3.7253,-3.7393,-3.7445,-3.7469,-3.7498,-3.7438,-3.7668,-3.769,-3.771,-3.7784,-3.7813,-3.7466,-3.7465,-3.7464,-3.7463,0,-3.7075,-3.715,-3.7228,-3.7276,-3.7318,-3.7412,-3.739,-3.7437,-3.7406,-3.7401,-3.7514,-3.7532,-3.7594,-3.7625,-3.7596,-3.7763,-3.7732,-3.7674,-3.7578,-3.775,-3.7819,-3.7846,-3.7478,-3.7475,-3.7472,-3.747,0,0,-3.7351,-3.7378,-3.7407,-3.7429,-3.7458,-3.7517,-3.7609,-3.7668,-3.7711,-3.7747,-3.7826,-3.7922,-3.7868,-3.79,-3.7874,-3.7945,-3.8114,-3.7878,-3.7878,-3.7923,-3.8302,-3.8347,-3.838,-3.8081,-3.8087,-3.8091,-3.83,0,-3.755,-3.7708,-3.7677,-3.7832,-3.7902,-3.7834,-3.7915,-3.7943,-3.7941,-3.8001,-3.7999,-3.8069,-3.7991,-3.8011,-3.8078,-3.8079,-3.819,-3.8064,-3.8157,-3.816,-3.8152,-3.8415,-3.8463,-3.8659,-3.8326,-3.833,-3.8334,0,-3.7803,-3.7849,-3.8011,-3.8031,-3.8059,-3.8132,-3.8186,-3.8244,-3.8275,-3.8269,-3.8306,-3.8267,-3.8361,-3.8263,-3.8394,-3.8309,-3.8345,-3.8352,-3.8359,-3.8368,-3.8259,-3.8434,-3.8721,-3.8751,-3.8375,-3.8372,-3.8369,0,-3.7992,-3.8094,-3.8205,-3.8225,-3.825,-3.8304,-3.8317,-3.8343,-3.8381,-3.8429,-3.8454,-3.8512,-3.8545,-3.8592,-3.857,-3.85,-3.8707,-3.8606,-3.8707,-3.8708,-3.8754,-3.8752,-3.9053,-3.8775,-3.8774,-3.8774,-3.8773,0,-3.8218,-3.8321,-3.829,-3.8358,-3.8472,-3.8436,-3.855,-3.8555,-3.8579,-3.8649,-3.8594,-3.8661,-3.8628,-3.8694,-3.8678,-3.879,-3.8805,-3.8804,-3.8799,-3.8811,-3.8811,-3.8835,-3.8822,-3.8781,-3.878,-3.8778,-3.8777,0,-3.8448,-3.8431,-3.8548,-3.8562,-3.8569,-3.8652,-3.8665,-3.8731,-3.8724,-3.8814,-3.8833,-3.8824,-3.8898,-3.8881,-3.8963,-3.8953,-3.9095,-3.9072,-3.9085,-3.908,-3.9182,-3.9174,-3.9511,-3.9555,-3.9246,-3.9249,-3.9251,0,-3.8595,-3.8672,-3.8695,-3.8737,-3.8755,-3.8823,-3.8863,-3.8831,-3.8874,-3.8917,-3.8978,-3.9047,-3.9101,-3.9224,-3.9226,-3.9289,-3.9269,-3.9383,-3.9278,-3.9288,-3.9273,-3.927,-3.9279,-3.9404,-3.9408,-3.9411,-3.9413,0,-3.8858,-3.8846,-3.8903,-3.896,-3.9008,-3.9051,-3.9088,-3.9127,-3.9098,-3.915,-3.9225,-3.9267,-3.9351,-3.9422,-3.9481,-3.9496,-3.9452,-3.9446,-3.9473,-3.9486,-3.9491,-3.9492,-3.9144,-3.9438,-3.9436,-3.9434,-3.9433,-3.9432,-3.9052,-3.9118,-3.9145,-3.9212,-3.9237,-3.9274,-3.9337,-3.9338,-3.94,-3.9465,-3.9443,-3.9529,-3.9561,-3.9635,-3.9658,-3.9727,-3.9684,-3.9723,-3.9733,-3.9743,-3.9757,-3.9478,-3.9737,-3.9736,-3.9736,-3.9735,-3.9734,0,-3.9313,-3.9327,-3.9389,-3.9444,-3.9498,-3.9449,-3.9489,-3.9537,-3.9614,-3.9646,-3.9701,-3.9789,-3.9857,-3.9865,-3.9931,-3.9985,-3.9966,-4.0003,-4.0,-4.0005,-3.979,-3.9761,-4.0018,-4.0017,-4.0017,-4.0017,-4.0017,-4.0017,-3.9456,-3.9566,-3.9558,-3.9682,-3.9695,-3.9779,-3.9806,-3.9841,-3.9867,-3.9967,-4.0024,-4.0028,-4.0052,-4.0119,-4.0181,-4.0181,-4.0209,-4.0255,-4.0249,-4.0048,-4.002,-3.9993,-3.9966,-4.0261,-4.0261,-4.0458,-4.046,-4.0461]},{"header":{"parameterUnit":"m.s-1","parameterCategory":1,"la1":30.2991,"la2":30.254,"lo1":-89.0895,"lo2":-89.0444,"dy":0.0017,"dx":0.0017,"nx":28,"ny":28,"refTime":"2025-01-15T09:00:00:Z","depth":0,"parameterNumber":3,"parameterNumberName":"V-component_of_WINDS"},"data":[0,0,0,0,0,0,0,0,0,0,0,0,0,0,0,0,0,0,0,0,0,0,0,0,0,0,0,0,0,0,0,0,0,0,0,0,0,0,0,0,0,0,0,0,0,0,0,0,0,0,0,0,0,0,0,0,0,0,-2.1174,-2.1173,0,-2.1125,-2.1124,-2.1124,-2.1061,-2.106,-2.1059,-2.1058,-2.1007,-2.1007,-2.1007,0,0,0,0,0,0,0,0,0,0,0,0,0,-2.1213,-2.1212,-2.1174,-2.1173,-2.1173,-2.1125,-2.1124,-2.1123,-2.1061,-2.106,-2.1058,-2.1057,-2.1007,-2.1007,-2.1006,0,0,0,0,0,0,0,0,0,0,0,0,0,-2.1183,-2.1212,-2.1174,-2.1136,-2.1132,-2.1125,-2.1124,-2.1123,-2.1061,-2.106,-2.1058,-2.1057,-2.1008,-2.1007,-2.1006,-2.1033,0,0,-2.1005,-2.1004,0,0,0,0,0,0,0,0,-2.1185,-2.1182,-2.1142,-2.1138,-2.1134,-2.1097,-2.1119,-2.1093,-2.1061,-2.1088,-2.1058,-2.1056,-2.1038,-2.1035,-2.1029,-2.1031,-2.1029,-2.1005,-2.1004,-2.1004,-2.1004,0,0,0,0,0,0,0,-2.1187,-2.1183,-2.1154,-2.1141,-2.1137,-2.1121,-2.1115,-2.1114,-2.1072,-2.1086,-2.1081,-2.1076,-2.1036,-2.103,-2.1028,-2.1028,-2.1005,-2.1004,-2.1004,-2.1003,-2.1047,-2.1049,0,0,0,0,0,0,-2.1195,-2.1185,-2.1156,-2.1153,-2.1156,-2.1121,-2.1115,-2.1111,-2.1072,-2.1065,-2.1077,-2.1073,-2.1032,-2.1028,-2.1026,-2.1053,-2.1004,-2.1003,-2.1003,-2.1046,-2.1047,-2.1049,0,0,0,0,0,0,-2.1196,-2.1193,-2.1158,-2.1168,-2.1162,-2.1122,-2.1118,-2.111,-2.1104,-2.1066,-2.1058,-2.1079,-2.103,-2.1027,-2.1031,-2.1051,-2.1003,-2.1003,-2.1044,-2.1046,-2.1048,-2.111,0,0,0,0,0,0,-2.1197,-2.1193,-2.1204,-2.1169,-2.1162,-2.1165,-2.1119,-2.1111,-2.1104,-2.1098,-2.1065,-2.1059,-2.1029,-2.1033,-2.1031,-2.1049,-2.1002,-2.1042,-2.1045,-2.1048,-2.1106,-2.1114,-2.1121,0,0,0,0,0,-2.1199,-2.1223,-2.1205,-2.1201,-2.1174,-2.1167,-2.1163,-2.1128,-2.1105,-2.1115,-2.109,-2.106,-2.1049,-2.1034,-2.1031,-2.105,-2.1041,-2.1044,-2.1047,-2.1103,-2.1113,-2.1121,0,0,0,0,0,0,-2.1262,-2.1218,-2.1197,-2.1211,-2.1193,-2.1156,-2.1167,-2.114,-2.1128,-2.1123,-2.108,-2.1074,-2.1084,-2.1067,-2.1051,-2.1073,-2.104,-2.1043,-2.1083,-2.1092,-2.11,-2.1103,-2.1002,0,0,0,0,0,-2.1278,-2.1276,-2.1237,-2.1253,-2.1245,-2.1208,-2.1203,-2.1178,-2.1158,-2.115,-2.1125,-2.1107,-2.1098,-2.1094,-2.1085,-2.1103,-2.1095,-2.1115,-2.1122,-2.1128,-2.1132,-2.1138,-2.1146,-2.106,-2.106,-2.106,0,0,-2.131,-2.1286,-2.1287,-2.1265,-2.1248,-2.1247,-2.1202,-2.1202,-2.12,-2.115,-2.1153,-2.1134,-2.111,-2.1121,-2.1125,-2.1108,-2.1153,-2.1133,-2.1138,-2.1138,-2.1143,-2.1151,-2.1158,-2.1063,-2.1062,-2.1062,0,0,-2.1368,-2.135,-2.136,-2.1344,-2.1319,-2.1293,-2.1296,-2.1263,-2.1248,-2.1251,-2.1212,-2.1209,-2.1197,-2.1181,-2.1171,-2.1221,-2.1193,-2.122,-2.1259,-2.1266,-2.1273,-2.1278,-2.1295,-2.1302,-2.1223,-2.1223,-2.1223,0,-2.1411,-2.1407,-2.1369,-2.1372,-2.1363,-2.1317,-2.1327,-2.1313,-2.1286,-2.1281,-2.1262,-2.1244,-2.1225,-2.1231,-2.1243,-2.1237,-2.1238,-2.1223,-2.1275,-2.128,-2.1285,-2.13,-2.1307,-2.1226,-2.1226,-2.1226,-2.1225,0,-2.1461,-2.1459,-2.1471,-2.1445,-2.1438,-2.1444,-2.1407,-2.1403,-2.1378,-2.1355,-2.1357,-2.1332,-2.1316,-2.1316,-2.1292,-2.1318,-2.1308,-2.1283,-2.1249,-2.1297,-2.1311,-2.1317,-2.1231,-2.123,-2.1229,-2.1228,0,0,-2.1558,-2.1511,-2.1516,-2.1503,-2.1472,-2.1469,-2.1472,-2.1457,-2.1454,-2.1437,-2.1438,-2.1428,-2.1404,-2.1393,-2.1367,-2.1373,-2.1413,-2.1346,-2.1345,-2.1359,-2.1439,-2.1458,-2.1466,-2.1393,-2.1394,-2.1395,-2.144,0,-2.161,-2.1614,-2.1579,-2.1592,-2.1589,-2.1544,-2.1547,-2.1527,-2.1505,-2.1499,-2.1474,-2.1467,-2.1436,-2.1429,-2.1433,-2.1407,-2.1428,-2.1403,-2.1393,-2.1394,-2.1401,-2.1473,-2.1494,-2.1538,-2.1446,-2.1447,-2.1447,0,-2.167,-2.1656,-2.1669,-2.1635,-2.1632,-2.1636,-2.1618,-2.1612,-2.1589,-2.1572,-2.1559,-2.1528,-2.1528,-2.1497,-2.1496,-2.1479,-2.1473,-2.1459,-2.146,-2.1458,-2.1423,-2.1472,-2.1551,-2.1558,-2.1456,-2.1455,-2.1454,0,-2.1739,-2.1723,-2.1728,-2.1719,-2.168,-2.1683,-2.1667,-2.1641,-2.1634,-2.1618,-2.1612,-2.1597,-2.1588,-2.1576,-2.1542,-2.1522,-2.1544,-2.151,-2.153,-2.1531,-2.1537,-2.1537,-2.1615,-2.1533,-2.1533,-2.1533,-2.1533,0,-2.18,-2.1809,-2.1758,-2.1761,-2.177,-2.173,-2.1739,-2.1719,-2.1696,-2.1694,-2.1654,-2.1653,-2.1607,-2.16,-2.1573,-2.1576,-2.1572,-2.1558,-2.1551,-2.1562,-2.1563,-2.1557,-2.1553,-2.1535,-2.1534,-2.1534,-2.1534,0,-2.1878,-2.1845,-2.1847,-2.181,-2.18,-2.1808,-2.1776,-2.1776,-2.1751,-2.1749,-2.1746,-2.1706,-2.1696,-2.166,-2.1641,-2.1623,-2.1633,-2.162,-2.1642,-2.1637,-2.1658,-2.1657,-2.1735,-2.1743,-2.1657,-2.1658,-2.1659,0,-2.1919,-2.1925,-2.1888,-2.1884,-2.1869,-2.1863,-2.1855,-2.1815,-2.1808,-2.178,-2.1784,-2.1771,-2.1758,-2.1743,-2.1712,-2.1697,-2.1682,-2.171,-2.1679,-2.169,-2.1681,-2.1681,-2.1681,-2.1717,-2.1719,-2.172,-2.172,0,-2.1996,-2.1978,-2.1968,-2.1952,-2.1943,-2.1928,-2.1911,-2.1909,-2.1865,-2.1859,-2.1847,-2.1837,-2.1817,-2.1804,-2.1783,-2.1766,-2.1735,-2.173,-2.1734,-2.1745,-2.1757,-2.175,-2.166,-2.1729,-2.1728,-2.1727,-2.1727,-2.1726,-2.2056,-2.2059,-2.2033,-2.2022,-2.2005,-2.199,-2.1988,-2.1963,-2.1953,-2.1933,-2.191,-2.1902,-2.1876,-2.1845,-2.1829,-2.1821,-2.1805,-2.1811,-2.1812,-2.1814,-2.1819,-2.1759,-2.1818,-2.1817,-2.1817,-2.1817,-2.1817,0,-2.2129,-2.211,-2.2101,-2.2078,-2.207,-2.2042,-2.2021,-2.2015,-2.2008,-2.1987,-2.1975,-2.1961,-2.1948,-2.1915,-2.1898,-2.1898,-2.1883,-2.1895,-2.1894,-2.189,-2.1835,-2.1833,-2.1907,-2.1907,-2.1907,-2.1907,-2.1907,-2.1907,-2.2167,-2.217,-2.2149,-2.2142,-2.2123,-2.2114,-2.2105,-2.209,-2.2072,-2.2059,-2.2048,-2.2027,-2.2,-2.1981,-2.1966,-2.1957,-2.1952,-2.1968,-2.1954,-2.1903,-2.1894,-2.1886,-2.1884,-2.1968,-2.1968,-2.201,-2.2011,-2.2011]}]]